カタログに戻る

STARLINK-6047

運用中通信VLEO
NORAD 56460·PAYLOAD·🇺🇸 United States

打ち上げ May 10, 2023 から Vandenberg Space Force Base

Loading…

次のパス (今後24時間)

TLE

最新Source: CelesTrak SupGP

元期: Sep 14, 2026, 22:34 UTC

1 56460C 23064N   26257.94076389 -.00042389  00000+0 -35528-2 0  2573
2 56460  70.0029  27.2302 0003004 276.3820 148.4968 14.98346851    12

AllMySatでSTARLINK-6047をリアルタイム追跡

Download on the App Store